الكل
Kyogle Hospital Airport YXKO حالة الطقس
There is no TAF data available at YXKO. Showing TAF data for YLIS (21 mi جنوبي شرقي).
توقع منطقة محطة المطار LSY (لا توجد بيانات لـYXKO)
| Here is the undecoded forecast: 2026/05/05 12:10 YLIS 051210Z 0514/0602 23005KT 8000 -DZ SCT007 BKN010 BECMG 0523/0601 19008KT 9999 -SHRA BKN020 TEMPO 0514/0523 3000 DZ BKN005 INTER 0523/0602 3000 SHRA BKN010 FEW020TCU RMK T 18 17 17 18 Q 1017 1017 1018 1019 |
There is no METAR data available at YXKO. Showing METAR data for YCAS (18 mi جنوب).
محفوظات أحدث تقرير روتيني عن حالة الطقس من أجل الطيران (الميتار) CSI ( لا توجد بيانات لـYXKO)
| Date | Time (AEST) | Flight Rules | Wind Dir. | Speed | Type | Height AGL (ft) | Visibility | Temp (°C) | Temp (°F) | Dew Point (°C) | Dew Point (°F) | Rel. Humid. | Pressure | Density Altitude | Remarks |
|---|---|---|---|---|---|---|---|---|---|---|---|---|---|---|---|
| 05-ماي | 23:00 | n/a | 230° | 5 kt | Missing | 20° | 68° | 19° | 66° | 94% | 1018 mb | 543 ft | |||
| 05-ماي | 22:00 | n/a | 210° | 5 kt | Missing | 20° | 68° | 19° | 66° | 94% | 1019 mb | 514 ft | |||
| 05-ماي | 21:00 | n/a | 190° | 5 kt | Missing | 21° | 69° | 19° | 66° | 88% | 1019 mb | 634 ft | |||
| 05-ماي | 20:00 | n/a | 220° | 6 kt | Missing | 21° | 69° | 19° | 66° | 88% | 1018 mb | 663 ft | |||
| 05-ماي | 19:00 | n/a | 170° | 5 kt | Missing | 21° | 69° | 19° | 66° | 88% | 1018 mb | 663 ft | |||
| 05-ماي | 18:00 | n/a | 140° | 6 kt | Missing | 22° | 71° | 18° | 64° | 78% | 1017 mb | 813 ft | |||
| 05-ماي | 17:00 | n/a | 130° | 3 kt | Missing | 23° | 73° | 18° | 64° | 73% | 1015 mb | 992 ft | |||
| 05-ماي | 16:00 | n/a | 120° | 2 kt | Missing | 26° | 78° | 18° | 64° | 61% | 1015 mb | 1,352 ft | |||
| 05-ماي | 15:00 | n/a | 70° | 4 kt | Missing | 27° | 80° | 17° | 62° | 54% | 1014 mb | 1,502 ft | |||
| 05-ماي | 14:00 | n/a | 260° | 2 kt | Missing | 27° | 80° | 17° | 62° | 54% | 1014 mb | 1,502 ft | |||
| 05-ماي | 13:00 | n/a | 340° | 1 kt | Missing | 26° | 78° | 17° | 62° | 58% | 1015 mb | 1,352 ft | |||
| 05-ماي | 12:00 | n/a | 350° | 3 kt | Missing | 25° | 77° | 18° | 64° | 65% | 1016 mb | 1,203 ft | |||
| 05-ماي | 11:00 | n/a | 290° | 3 kt | Missing | 25° | 77° | 19° | 66° | 69% | 1017 mb | 1,173 ft | |||
| 05-ماي | 10:00 | n/a | 300° | 4 kt | Missing | 22° | 71° | 19° | 66° | 83% | 1018 mb | 783 ft | |||
| 05-ماي | 09:00 | n/a | 310° | 4 kt | Missing | 19° | 66° | 19° | 66° | 100% | 1018 mb | 423 ft | |||
| 05-ماي | 08:00 | n/a | 350° | 4 kt | Missing | 19° | 66° | 18° | 64° | 94% | 1018 mb | 423 ft | |||
| 05-ماي | 07:00 | n/a | 310° | 4 kt | Missing | 19° | 66° | 19° | 66° | 100% | 1017 mb | 453 ft | |||
| 05-ماي | 06:00 | n/a | 290° | 2 kt | Missing | 19° | 66° | 18° | 64° | 94% | 1017 mb | 453 ft | |||
| 05-ماي | 05:00 | n/a | 290° | 3 kt | Missing | 19° | 66° | 19° | 66° | 100% | 1017 mb | 453 ft | |||
| 05-ماي | 04:00 | n/a | 320° | 5 kt | Missing | 19° | 66° | 19° | 66° | 100% | 1016 mb | 483 ft | |||
| 05-ماي | 03:00 | n/a | 50° | 4 kt | Missing | 19° | 66° | 19° | 66° | 100% | 1016 mb | 483 ft | |||
| 05-ماي | 02:00 | n/a | 130° | 1 kt | Missing | 18° | 64° | 18° | 64° | 100% | 1017 mb | 333 ft | |||
| 05-ماي | 01:00 | n/a | Calm | Missing | 18° | 64° | 18° | 64° | 100% | 1017 mb | 333 ft | ||||
| 05-ماي | 00:00 | n/a | 130° | 1 kt | Missing | 16° | 60° | 16° | 60° | 100% | 1017 mb | 93 ft |
تسجيل الدخول
| مُتصفحك غير مُدعَّم. قم بترقية متصفحك |
